Lawrenceville, IL

12:39 AM CDT on April 23, 2017 (GMT -0500)
Lawrenceville-Vincennes International

Weather History for KLWV - October, 2012

Change the Weather History Date:

Saturday, October 27, 2012

  Actual Average Record
Temperature  
Mean Temperature 47 °F 54 °F  
Max Temperature 56 °F 65 °F 84 °F (2014)
Min Temperature 37 °F 43 °F 28 °F (2001)
Degree Days  
Heating Degree Days 18 11  
Month to date heating degree days 247 209  
Since 1 July heating degree days 312 248  
Cooling Degree Days 0 0  
Month to date cooling degree days 15 31  
Year to date cooling degree days 1707 1385  
Moisture  
Dew Point 33 °F    
Average Humidity 63    
Maximum Humidity 82    
Minimum Humidity 43    
Precipitation  
Precipitation 0.00 in 0.11 in 2.08 in (1991)
Month to date precipitation 3.25 3.63  
Year to date precipitation 26.92 36.17  
Sea Level Pressure  
Sea Level Pressure 30.20 in    
Wind  
Wind Speed 13 mph (North)    
Max Wind Speed 23 mph    
Max Gust Speed 28 mph    
Visibility 10 miles    
Events      
T = Trace of Precipitation, MM = Missing Value Source: NWS Daily Summary

Daily Weather History Graph

Daily Weather History Graph

Search for Another Location

Airport or City:

Trip Planner

Search our weather history database for the weather conditions in past years. The results will help you decide how hot, cold, wet, or windy it might be!

Date:

Astronomy

Oct. 27, 2012 Rise Set
Actual Time 7:12 AM CDT 5:55 PM CDT
Civil Twilight 6:45 AM CDT 6:22 PM CDT
Nautical Twilight 6:13 AM CDT 6:53 PM CDT
Astronomical Twilight 5:43 AM CDT 7:24 PM CDT
Moon 4:40 PM CDT (10/27) 5:08 AM CDT (10/27)
Length of Visible Light 11h 37m
Length of Day
10h 42m
Waxing Gibbous, 96% of the Moon is Illuminated
Oct 27
Waxing Gibbous
Oct 29
Full
Nov 6
Last Quarter
Nov 13
New
Nov 20
First Quarter

Hourly Weather History & Observations

Time (CDT) Temp. Windchill Dew Point Humidity Pressure Visibility Wind Dir Wind Speed Gust Speed Precip Events Conditions
12:53 AM 39.0 °F 31.8 °F 33.1 °F 79% 30.22 in 10.0 mi North 11.5 mph - N/A   Clear
1:53 AM 39.9 °F 32.5 °F 33.1 °F 77% 30.22 in 10.0 mi North 12.7 mph - N/A   Clear
2:53 AM 39.0 °F 31.4 °F 33.1 °F 79% 30.22 in 10.0 mi North 12.7 mph - N/A   Clear
3:53 AM 37.9 °F 30.0 °F 32.0 °F 79% 30.22 in 10.0 mi North 12.7 mph - N/A   Clear
4:53 AM 37.9 °F 30.9 °F 32.0 °F 79% 30.22 in 10.0 mi North 10.4 mph - N/A   Clear
5:53 AM 37.0 °F 29.8 °F 30.9 °F 79% 30.22 in 10.0 mi North 10.4 mph - N/A   Clear
6:53 AM 37.0 °F 29.3 °F 30.9 °F 79% 30.22 in 10.0 mi North 11.5 mph - N/A   Clear
7:53 AM 39.0 °F 31.0 °F 30.9 °F 73% 30.22 in 9.0 mi North 13.8 mph - N/A   Clear
8:53 AM 42.1 °F 35.7 °F 33.1 °F 70% 30.24 in 10.0 mi North 11.5 mph - N/A   Clear
10:53 AM 48.9 °F - 34.0 °F 56% 30.22 in 10.0 mi North 16.1 mph 23.0 mph N/A   Clear
11:53 AM 52.0 °F - 35.1 °F 53% 30.22 in 10.0 mi North 15.0 mph 25.3 mph N/A   Clear
12:53 PM 53.1 °F - 35.1 °F 50% 30.19 in 10.0 mi North 17.3 mph - N/A   Clear
1:53 PM 55.0 °F - 33.1 °F 43% 30.17 in 10.0 mi NNE 16.1 mph - N/A   Clear
2:53 PM 55.9 °F - 34.0 °F 44% 30.15 in 10.0 mi North 16.1 mph - N/A   Clear
3:53 PM 55.0 °F - 33.1 °F 43% 30.16 in 10.0 mi NNE 16.1 mph - N/A   Clear
4:53 PM 54.0 °F - 35.1 °F 49% 30.15 in 10.0 mi North 11.5 mph - N/A   Clear
5:53 PM 48.9 °F - 35.1 °F 59% 30.17 in 10.0 mi North 11.5 mph - N/A   Clear
6:53 PM 48.0 °F - 35.1 °F 61% 30.19 in 10.0 mi North 13.8 mph - N/A   Clear
7:53 PM 46.9 °F - 34.0 °F 61% 30.19 in 10.0 mi North 12.7 mph - N/A   Clear
8:53 PM 45.0 °F 40.1 °F 34.0 °F 65% 30.18 in 10.0 mi North 9.2 mph - N/A   Clear
9:53 PM 45.0 °F 40.1 °F 34.0 °F 65% 30.19 in 10.0 mi North 9.2 mph - N/A   Clear
11:53 PM 43.0 °F 36.4 °F 34.0 °F 71% 30.17 in 10.0 mi North 12.7 mph - N/A   Clear